THA910 VTBS-EGLL

Flight info

Callsign THA910
Flight time N/A
Altitude 32000
Route TARED1J TARED P646 JJS B209 KKJ L333 INTIL/N0506F340 L333 MERUN L750 RANAH B449 MAMED B450 BIBIM/N0487F360 A909 RODAR N644 LEYLA T916 MATAL M11 REBLO UM11 CRM UL746 ODERO L746 LUGEB DCT PEXAL DCT TIXIP/N0476F380 DCT TEGRI DCT ARSIN DCT RENKA DCT INBED DCT BOMBI DCT ADKUV DCT BUB L608 LOGAN
Aircraft B77W/H-SDE1E2E3FGHIJ2J3J4J5M1RWXY/LB1D1

Departure

Time 2026-05-06 11:39
Airport Suvarnabhumi Airport (VTBS)

Arrival

Time N/A
Airport London Heathrow Airport (EGLL)
Time Latitude Longitude Altitude Speed Heading
2026-05-06 10:38 13.69066 100.75072 15 ft 0 kts 13°
2026-05-06 11:25 13.69061 100.75070 14 ft 2 kts 14°
2026-05-06 11:25 13.69047 100.75067 14 ft 2 kts 13°
2026-05-06 11:26 13.69032 100.75063 14 ft 2 kts 22°
2026-05-06 11:26 13.69020 100.75055 14 ft 2 kts 51°
2026-05-06 11:26 13.69012 100.75041 14 ft 2 kts 73°
2026-05-06 11:26 13.69010 100.75026 14 ft 2 kts 96°
2026-05-06 11:27 13.69012 100.75017 14 ft 0 kts 104°
2026-05-06 11:30 13.69011 100.75021 14 ft 1 kts 104°
2026-05-06 11:30 13.69005 100.75046 14 ft 5 kts 104°
2026-05-06 11:31 13.68994 100.75094 14 ft 8 kts 103°
2026-05-06 11:31 13.68980 100.75155 14 ft 9 kts 102°
2026-05-06 11:31 13.68973 100.75185 14 ft 0 kts 104°
2026-05-06 11:31 13.68973 100.75187 14 ft 0 kts 111°
2026-05-06 11:32 13.68961 100.75196 14 ft 4 kts 159°
2026-05-06 11:32 13.68907 100.75206 14 ft 11 kts 180°
2026-05-06 11:32 13.68808 100.75188 14 ft 16 kts 193°
2026-05-06 11:32 13.68697 100.75163 14 ft 12 kts 192°
2026-05-06 11:33 13.68610 100.75161 14 ft 11 kts 150°
2026-05-06 11:33 13.68577 100.75239 14 ft 12 kts 103°
2026-05-06 11:33 13.68553 100.75325 14 ft 12 kts 110°
2026-05-06 11:33 13.68523 100.75413 14 ft 13 kts 108°
2026-05-06 11:34 13.68497 100.75505 14 ft 13 kts 105°
2026-05-06 11:34 13.68483 100.75600 14 ft 13 kts 78°
2026-05-06 11:34 13.68552 100.75659 14 ft 13 kts 19°
2026-05-06 11:34 13.68646 100.75687 14 ft 14 kts 15°
2026-05-06 11:35 13.68745 100.75714 14 ft 14 kts 13°
2026-05-06 11:35 13.68850 100.75740 14 ft 15 kts 13°
2026-05-06 11:35 13.68957 100.75767 14 ft 16 kts 13°
2026-05-06 11:35 13.69067 100.75794 14 ft 16 kts 14°
2026-05-06 11:36 13.69162 100.75819 14 ft 10 kts 17°
2026-05-06 11:36 13.69222 100.75853 14 ft 8 kts 56°
2026-05-06 11:36 13.69233 100.75916 14 ft 9 kts 94°
2026-05-06 11:36 13.69223 100.75978 14 ft 0 kts 103°
2026-05-06 11:37 13.69223 100.75979 14 ft 0 kts 103°
2026-05-06 11:38 13.69213 100.76011 14 ft 8 kts 113°
2026-05-06 11:38 13.69160 100.76073 14 ft 14 kts 155°
2026-05-06 11:38 13.69097 100.76080 14 ft 2 kts 187°
2026-05-06 11:38 13.69031 100.76067 14 ft 25 kts 192°
2026-05-06 11:39 13.68622 100.75961 14 ft 94 kts 195°
2026-05-06 11:39 13.67775 100.75739 15 ft 156 kts 194°
2026-05-06 11:39 13.66557 100.75419 221 ft 193 kts 195°
2026-05-06 11:39 13.65306 100.75073 1051 ft 186 kts 192°
2026-05-06 11:40 13.63944 100.75035 1280 ft 203 kts 173°
2026-05-06 11:40 13.62474 100.75145 1598 ft 219 kts 176°
2026-05-06 11:40 13.60882 100.75223 1947 ft 236 kts 176°
2026-05-06 11:40 13.59166 100.75403 2279 ft 253 kts 161°
2026-05-06 11:41 13.57479 100.76023 2846 ft 261 kts 160°
2026-05-06 11:41 13.55738 100.76613 3530 ft 265 kts 162°
2026-05-06 11:41 13.53936 100.77152 4187 ft 270 kts 163°
2026-05-06 11:41 13.52113 100.77676 4838 ft 275 kts 163°
2026-05-06 11:42 13.50258 100.78206 5484 ft 279 kts 163°
2026-05-06 11:42 13.48315 100.78565 6080 ft 286 kts 182°
2026-05-06 11:42 13.46333 100.78248 6738 ft 289 kts 194°
2026-05-06 11:42 13.44496 100.77375 7346 ft 293 kts 219°
2026-05-06 11:43 13.43203 100.75770 7905 ft 296 kts 246°
2026-05-06 11:43 13.42727 100.73717 8474 ft 297 kts 273°
2026-05-06 11:43 13.43098 100.71654 9049 ft 299 kts 288°
2026-05-06 11:44 13.44283 100.67521 9941 ft 305 kts 286°
2026-05-06 11:44 13.44991 100.65373 9827 ft 332 kts 295°
2026-05-06 11:44 13.46147 100.63190 9810 ft 359 kts 305°
2026-05-06 11:44 13.47774 100.61135 9805 ft 382 kts 316°
2026-05-06 11:45 13.49845 100.59373 9801 ft 386 kts 327°
2026-05-06 11:45 13.52226 100.58049 9793 ft 385 kts 339°
2026-05-06 11:45 13.54664 100.57256 9785 ft 384 kts 349°
2026-05-06 11:45 13.57364 100.56930 9797 ft 382 kts
2026-05-06 11:46 13.60027 100.57031 9801 ft 382 kts
2026-05-06 11:46 13.62712 100.57182 9784 ft 382 kts
2026-05-06 11:46 13.65390 100.57310 9796 ft 381 kts
2026-05-06 11:46 13.68068 100.57419 9873 ft 391 kts
2026-05-06 11:47 13.70805 100.57516 10660 ft 391 kts
2026-05-06 11:47 13.73515 100.57604 11549 ft 389 kts
2026-05-06 11:47 13.76223 100.57445 12183 ft 394 kts 352°
2026-05-06 11:47 13.78945 100.56755 12733 ft 401 kts 341°
2026-05-06 11:48 13.81489 100.55548 13317 ft 407 kts 331°
2026-05-06 11:48 13.83931 100.54021 13989 ft 409 kts 329°
2026-05-06 11:48 13.86374 100.52461 14633 ft 412 kts 329°
2026-05-06 11:48 13.88823 100.50832 15232 ft 416 kts 324°
2026-05-06 11:49 13.90993 100.48854 15798 ft 421 kts 314°
2026-05-06 11:49 13.92814 100.46471 16365 ft 425 kts 304°
2026-05-06 11:49 13.94209 100.43742 16914 ft 430 kts 293°
2026-05-06 11:49 13.95096 100.40801 17430 ft 436 kts 283°
2026-05-06 11:50 13.95605 100.37676 17948 ft 440 kts 280°
2026-05-06 11:50 13.96046 100.34566 18455 ft 444 kts 279°
2026-05-06 11:50 13.96495 100.31379 18956 ft 447 kts 279°
2026-05-06 11:50 13.96937 100.28263 19436 ft 450 kts 280°
2026-05-06 11:51 13.97687 100.25111 19909 ft 451 kts 290°
2026-05-06 11:51 13.98931 100.22159 20361 ft 452 kts 300°
2026-05-06 11:51 14.00587 100.19403 20797 ft 455 kts 304°
2026-05-06 11:51 14.02356 100.16672 21240 ft 458 kts 305°
2026-05-06 11:52 14.04127 100.13947 21660 ft 461 kts 304°
2026-05-06 11:52 14.05913 100.11198 22065 ft 464 kts 304°
2026-05-06 11:52 14.07730 100.08399 22486 ft 467 kts 305°
2026-05-06 11:52 14.09525 100.05633 22915 ft 469 kts 305°
2026-05-06 11:53 14.11343 100.02829 23342 ft 472 kts 305°
2026-05-06 11:53 14.13179 99.99995 23754 ft 474 kts 304°
2026-05-06 11:53 14.15024 99.97147 24155 ft 477 kts 305°
2026-05-06 11:53 14.16862 99.94309 24542 ft 480 kts 304°
2026-05-06 11:54 14.18721 99.91437 24929 ft 482 kts 304°
2026-05-06 11:54 14.20613 99.88513 25331 ft 485 kts 304°
2026-05-06 11:54 14.22498 99.85598 25722 ft 487 kts 304°
2026-05-06 11:54 14.24377 99.82690 26098 ft 489 kts 304°
2026-05-06 11:55 14.26308 99.79703 26483 ft 492 kts 304°
2026-05-06 11:55 14.28205 99.76766 26856 ft 494 kts 304°
2026-05-06 11:55 14.30116 99.73807 27227 ft 496 kts 304°
2026-05-06 11:55 14.32071 99.70779 27602 ft 499 kts 304°
2026-05-06 11:56 14.33997 99.67793 27953 ft 501 kts 304°
2026-05-06 11:56 14.35942 99.64778 28301 ft 504 kts 304°
2026-05-06 11:56 14.37888 99.61761 28676 ft 505 kts 304°
2026-05-06 11:56 14.39847 99.58722 29089 ft 507 kts 304°
2026-05-06 11:57 14.41764 99.55746 29563 ft 506 kts 304°
2026-05-06 11:57 14.43619 99.52827 30142 ft 503 kts 301°
2026-05-06 11:57 14.45284 99.49706 30784 ft 499 kts 298°
2026-05-06 11:57 14.46866 99.46577 31352 ft 496 kts 298°
2026-05-06 11:58 14.48462 99.43408 31794 ft 495 kts 298°
2026-05-06 11:58 14.50032 99.40294 31854 ft 498 kts 298°
2026-05-06 11:58 14.53238 99.33929 31905 ft 494 kts 298°
2026-05-06 11:59 14.56413 99.27625 31937 ft 495 kts 298°
2026-05-06 11:59 14.59587 99.21320 31950 ft 494 kts 298°
2026-05-06 12:00 14.62750 99.15033 31920 ft 494 kts 298°
2026-05-06 12:00 14.65926 99.08715 31907 ft 492 kts 298°
2026-05-06 12:01 14.69080 99.02436 31884 ft 492 kts 298°
2026-05-06 12:01 14.72246 98.96129 31872 ft 492 kts 298°
2026-05-06 12:02 14.75393 98.89854 31881 ft 493 kts 298°
2026-05-06 12:02 14.78555 98.83544 31906 ft 492 kts 298°
2026-05-06 12:03 14.81688 98.77286 31937 ft 492 kts 298°
2026-05-06 12:03 14.84842 98.70982 31945 ft 491 kts 298°
2026-05-06 12:04 14.87991 98.64682 31930 ft 492 kts 298°
2026-05-06 12:04 14.91135 98.58386 31909 ft 491 kts 298°
2026-05-06 12:05 14.94283 98.52078 31886 ft 491 kts 298°
2026-05-06 12:05 14.97415 98.45796 31869 ft 491 kts 298°
2026-05-06 12:06 15.00541 98.39521 31878 ft 491 kts 298°
2026-05-06 12:06 15.03656 98.33263 31888 ft 489 kts 298°
2026-05-06 12:07 15.06826 98.26889 31903 ft 491 kts 298°
2026-05-06 12:07 15.09919 98.20664 31895 ft 489 kts 298°
2026-05-06 12:08 15.12997 98.14352 31873 ft 491 kts 298°
2026-05-06 12:08 15.16054 98.08051 31853 ft 490 kts 298°
2026-05-06 12:09 15.19099 98.01775 31841 ft 490 kts 298°
2026-05-06 12:09 15.22159 97.95464 31836 ft 489 kts 298°
2026-05-06 12:10 15.25200 97.89189 31827 ft 488 kts 298°
2026-05-06 12:10 15.28240 97.82909 31811 ft 487 kts 298°
2026-05-06 12:11 15.31279 97.76629 31806 ft 490 kts 298°
2026-05-06 12:11 15.34328 97.70321 31806 ft 488 kts 298°
2026-05-06 12:12 15.37348 97.64068 31805 ft 489 kts 298°
2026-05-06 12:12 15.40408 97.57727 31808 ft 488 kts 298°
2026-05-06 12:13 15.43437 97.51445 31801 ft 486 kts 298°
2026-05-06 12:13 15.46514 97.45246 31800 ft 487 kts 299°
2026-05-06 12:14 15.49687 97.39054 31793 ft 485 kts 299°
2026-05-06 12:14 15.52861 97.32844 31797 ft 486 kts 299°
2026-05-06 12:15 15.56031 97.26628 31802 ft 485 kts 299°
2026-05-06 12:15 15.59189 97.20424 31798 ft 486 kts 299°
2026-05-06 12:16 15.62338 97.14231 31795 ft 486 kts 299°
2026-05-06 12:16 15.65473 97.08059 31797 ft 485 kts 299°
2026-05-06 12:17 15.68618 97.01862 31792 ft 486 kts 299°
2026-05-06 12:17 15.71755 96.95674 31792 ft 485 kts 299°
2026-05-06 12:18 15.74882 96.89500 31791 ft 484 kts 299°
2026-05-06 12:18 15.78013 96.83315 31791 ft 486 kts 298°
2026-05-06 12:19 15.81162 96.77085 31792 ft 485 kts 298°
2026-05-06 12:19 15.84282 96.70911 31788 ft 485 kts 298°
2026-05-06 12:20 15.87423 96.64687 31792 ft 486 kts 298°
2026-05-06 12:20 15.90559 96.58469 31788 ft 485 kts 298°
2026-05-06 12:21 15.93698 96.52240 31786 ft 486 kts 298°
2026-05-06 12:21 15.96835 96.46008 31781 ft 485 kts 298°
2026-05-06 12:22 15.99972 96.39771 31778 ft 486 kts 298°
2026-05-06 12:22 16.03101 96.33543 31780 ft 486 kts 298°
2026-05-06 12:23 16.06221 96.27330 31785 ft 486 kts 298°
2026-05-06 12:23 16.09367 96.21057 31781 ft 486 kts 298°
2026-05-06 12:24 16.12477 96.14852 31787 ft 487 kts 297°
2026-05-06 12:24 16.15618 96.08579 31786 ft 486 kts 297°
2026-05-06 12:25 16.18752 96.02315 31783 ft 488 kts 297°
2026-05-06 12:25 16.21863 95.96091 31789 ft 486 kts 297°
2026-05-06 12:26 16.24993 95.89823 31791 ft 487 kts 297°
2026-05-06 12:26 16.28097 95.83602 31793 ft 487 kts 297°
2026-05-06 12:27 16.31233 95.77309 31790 ft 488 kts 297°
2026-05-06 12:27 16.34335 95.71081 31790 ft 486 kts 297°
2026-05-06 12:28 16.37454 95.64815 31796 ft 486 kts 297°
2026-05-06 12:28 16.40548 95.58589 31796 ft 485 kts 297°
2026-05-06 12:29 16.43646 95.52352 31787 ft 484 kts 297°
2026-05-06 12:29 16.46748 95.46101 31791 ft 486 kts 297°
2026-05-06 12:30 16.49835 95.39874 31791 ft 484 kts 297°
2026-05-06 12:30 16.52935 95.33615 31797 ft 486 kts 296°
2026-05-06 12:31 16.56010 95.27402 31796 ft 483 kts 296°
2026-05-06 12:31 16.59098 95.21156 31795 ft 484 kts 296°
2026-05-06 12:32 16.62179 95.14917 31797 ft 484 kts 296°
2026-05-06 12:32 16.65270 95.08654 31793 ft 483 kts 296°
2026-05-06 12:33 16.68343 95.02420 31795 ft 484 kts 296°
2026-05-06 12:33 16.71422 94.96170 31791 ft 483 kts 296°
2026-05-06 12:34 16.74486 94.89942 31797 ft 483 kts 296°
2026-05-06 12:34 16.77537 94.83736 31795 ft 482 kts 296°
2026-05-06 12:35 16.80660 94.77524 31785 ft 483 kts 301°
2026-05-06 12:35 16.84724 94.71935 31776 ft 485 kts 308°
2026-05-06 12:36 16.88991 94.66466 31780 ft 484 kts 308°
2026-05-06 12:36 16.93236 94.61011 31791 ft 483 kts 308°
2026-05-06 12:37 16.97456 94.55576 31788 ft 482 kts 308°
2026-05-06 12:37 17.01684 94.50123 31791 ft 482 kts 307°
2026-05-06 12:38 17.05925 94.44647 31797 ft 483 kts 307°
2026-05-06 12:38 17.10148 94.39188 31794 ft 483 kts 307°
2026-05-06 12:39 17.14354 94.33746 31799 ft 481 kts 307°
2026-05-06 12:39 17.18590 94.28260 31804 ft 483 kts 307°
2026-05-06 12:40 17.22809 94.22793 31804 ft 482 kts 307°
2026-05-06 12:40 17.27022 94.17329 31808 ft 481 kts 307°
2026-05-06 12:41 17.31233 94.11863 31805 ft 482 kts 307°
2026-05-06 12:41 17.35453 94.06380 31805 ft 482 kts 307°
2026-05-06 12:42 17.39643 94.00933 31804 ft 481 kts 307°
2026-05-06 12:42 17.43850 93.95458 31808 ft 482 kts 307°
2026-05-06 12:43 17.48045 93.89994 31807 ft 480 kts 307°
2026-05-06 12:43 17.52244 93.84522 31806 ft 480 kts 307°
2026-05-06 12:44 17.56437 93.79052 31807 ft 481 kts 307°
2026-05-06 12:44 17.60609 93.73606 31809 ft 480 kts 306°
2026-05-06 12:45 17.64785 93.68150 31809 ft 481 kts 306°
2026-05-06 12:46 17.71064 93.59937 31818 ft 480 kts 306°
2026-05-06 12:46 17.75223 93.54491 31821 ft 480 kts 306°
2026-05-06 12:47 17.79385 93.49038 31823 ft 480 kts 306°
2026-05-06 12:47 17.83559 93.43563 31823 ft 480 kts 306°
2026-05-06 12:48 17.87737 93.38080 31823 ft 479 kts 306°
2026-05-06 12:48 17.91889 93.32626 31832 ft 480 kts 306°
2026-05-06 12:49 17.96073 93.27125 31830 ft 479 kts 306°
2026-05-06 12:49 18.00221 93.21667 31825 ft 480 kts 306°
2026-05-06 12:50 18.04382 93.16187 31814 ft 480 kts 306°
2026-05-06 12:50 18.08538 93.10709 31808 ft 480 kts 306°
2026-05-06 12:51 18.12703 93.05214 31806 ft 479 kts 306°
2026-05-06 12:51 18.16860 92.99725 31806 ft 479 kts 306°
2026-05-06 12:52 18.20983 92.94276 31806 ft 479 kts 306°
2026-05-06 12:52 18.25140 92.88779 31805 ft 479 kts 306°
2026-05-06 12:53 18.29301 92.83271 31805 ft 478 kts 306°
2026-05-06 12:53 18.33445 92.77781 31805 ft 479 kts 306°
2026-05-06 12:54 18.37589 92.72285 31804 ft 479 kts 306°
2026-05-06 12:54 18.41713 92.66813 31804 ft 480 kts 306°
2026-05-06 12:55 18.45856 92.61311 31802 ft 478 kts 305°
2026-05-06 12:55 18.49993 92.55810 31803 ft 479 kts 305°
2026-05-06 12:56 18.54140 92.50293 31805 ft 478 kts 305°
2026-05-06 12:56 18.58257 92.44810 31809 ft 478 kts 305°
2026-05-06 12:57 18.62398 92.39291 31815 ft 479 kts 305°
2026-05-06 12:57 18.66502 92.33817 31822 ft 478 kts 305°
2026-05-06 12:58 18.70642 92.28288 31827 ft 479 kts 305°
2026-05-06 12:58 18.74781 92.22758 31827 ft 478 kts 305°
2026-05-06 12:59 18.78888 92.17263 31829 ft 479 kts 305°
2026-05-06 12:59 18.83000 92.11759 31831 ft 478 kts 304°
2026-05-06 13:00 18.87127 92.06229 31830 ft 477 kts 305°
2026-05-06 13:00 18.91217 92.00744 31828 ft 476 kts 305°
2026-05-06 13:01 18.95285 91.95222 31829 ft 476 kts 304°
2026-05-06 13:01 18.99316 91.89700 31828 ft 476 kts 304°
2026-05-06 13:02 19.03380 91.84133 31826 ft 476 kts 304°
2026-05-06 13:02 19.07428 91.78584 31825 ft 476 kts 304°
2026-05-06 13:03 19.11492 91.73009 31821 ft 478 kts 304°
2026-05-06 13:03 19.15558 91.67427 31818 ft 477 kts 304°
2026-05-06 13:04 19.19616 91.61852 31810 ft 477 kts 304°
2026-05-06 13:04 19.23632 91.56330 31806 ft 476 kts 304°
2026-05-06 13:05 19.27691 91.50742 31802 ft 476 kts 304°
2026-05-06 13:05 19.31702 91.45218 31800 ft 476 kts 304°
2026-05-06 13:06 19.35737 91.39654 31800 ft 476 kts 304°
2026-05-06 13:06 19.39779 91.34075 31803 ft 476 kts 303°
2026-05-06 13:07 19.43819 91.28495 31809 ft 477 kts 303°
2026-05-06 13:07 19.47837 91.22940 31809 ft 475 kts 303°
2026-05-06 13:08 19.51872 91.17355 31808 ft 477 kts 303°
2026-05-06 13:08 19.55923 91.11743 31808 ft 476 kts 303°
2026-05-06 13:09 19.59930 91.06190 31807 ft 475 kts 303°
2026-05-06 13:09 19.63956 91.00602 31807 ft 475 kts 303°
2026-05-06 13:10 19.67963 90.95035 31807 ft 476 kts 303°
2026-05-06 13:10 19.71979 90.89452 31806 ft 476 kts 303°
2026-05-06 13:11 19.76000 90.83855 31807 ft 477 kts 303°
2026-05-06 13:11 19.80017 90.78259 31812 ft 476 kts 303°
2026-05-06 13:12 19.84048 90.72639 31822 ft 476 kts 303°
2026-05-06 13:12 19.88063 90.67037 31825 ft 475 kts 303°
2026-05-06 13:13 19.92074 90.61433 31824 ft 476 kts 303°
2026-05-06 13:13 19.96072 90.55844 31825 ft 475 kts 303°
2026-05-06 13:14 20.00080 90.50235 31822 ft 475 kts 303°
2026-05-06 13:14 20.04064 90.44653 31822 ft 475 kts 303°
2026-05-06 13:15 20.08066 90.39042 31822 ft 475 kts 303°
2026-05-06 13:15 20.12059 90.33438 31827 ft 475 kts 302°
2026-05-06 13:16 20.16073 90.27799 31828 ft 476 kts 303°
2026-05-06 13:16 20.20102 90.22133 31827 ft 476 kts 302°
2026-05-06 13:17 20.24104 90.16499 31824 ft 476 kts 302°
2026-05-06 13:17 20.28105 90.10861 31823 ft 477 kts 302°
2026-05-06 13:18 20.32105 90.05222 31819 ft 475 kts 302°
2026-05-06 13:18 20.36105 89.99574 31815 ft 476 kts 302°
2026-05-06 13:19 20.40089 89.93945 31807 ft 474 kts 302°
2026-05-06 13:19 20.44074 89.88308 31805 ft 475 kts 302°
2026-05-06 13:20 20.48034 89.82702 31804 ft 475 kts 302°
2026-05-06 13:20 20.52014 89.77062 31802 ft 475 kts 302°
2026-05-06 13:21 20.55985 89.71428 31800 ft 476 kts 302°
2026-05-06 13:21 20.59972 89.65768 31802 ft 476 kts 302°
2026-05-06 13:22 20.63930 89.60143 31801 ft 476 kts 302°
2026-05-06 13:22 20.67900 89.54493 31803 ft 476 kts 302°
2026-05-06 13:23 20.71858 89.48857 31798 ft 475 kts 303°
2026-05-06 13:23 20.75841 89.43179 31799 ft 475 kts 303°
2026-05-06 13:24 20.79799 89.37530 31801 ft 475 kts 303°
2026-05-06 13:24 20.83743 89.31897 31810 ft 475 kts 302°
2026-05-06 13:25 20.87718 89.26215 31814 ft 474 kts 302°
2026-05-06 13:25 20.91666 89.20564 31811 ft 474 kts 302°
2026-05-06 13:26 20.95393 89.14766 31814 ft 473 kts 299°
2026-05-06 13:26 20.99020 89.08941 31811 ft 471 kts 299°
2026-05-06 13:27 21.02662 89.03108 31809 ft 471 kts 299°
2026-05-06 13:27 21.06291 88.97306 31814 ft 471 kts 300°
2026-05-06 13:28 21.09946 88.91464 31821 ft 471 kts 300°
2026-05-06 13:28 21.13605 88.85612 31819 ft 473 kts 300°
2026-05-06 13:29 21.17256 88.79770 31813 ft 472 kts 299°
2026-05-06 13:29 21.20907 88.73922 31808 ft 472 kts 299°
2026-05-06 13:30 21.24534 88.68108 31799 ft 472 kts 299°
2026-05-06 13:30 21.28201 88.62222 31796 ft 472 kts 299°
2026-05-06 13:31 21.31830 88.56393 31794 ft 471 kts 299°
2026-05-06 13:31 21.35481 88.50560 31792 ft 472 kts 300°
2026-05-06 13:32 21.39203 88.44743 31790 ft 471 kts 300°
2026-05-06 13:32 21.42897 88.38961 31786 ft 472 kts 300°
2026-05-06 13:33 21.46607 88.33143 31797 ft 472 kts 300°
2026-05-06 13:33 21.50320 88.27312 31798 ft 472 kts 300°
2026-05-06 13:34 21.54012 88.21509 31797 ft 470 kts 300°
2026-05-06 13:34 21.57716 88.15677 31802 ft 471 kts 300°
2026-05-06 13:35 21.61401 88.09871 31803 ft 471 kts 300°
2026-05-06 13:35 21.65072 88.04079 31805 ft 471 kts 300°
2026-05-06 13:36 21.68770 87.98238 31805 ft 472 kts 300°
2026-05-06 13:36 21.72442 87.92433 31800 ft 470 kts 300°
2026-05-06 13:37 21.76125 87.86605 31801 ft 471 kts 300°
2026-05-06 13:37 21.79806 87.80772 31800 ft 470 kts 300°
2026-05-06 13:38 21.83460 87.74977 31797 ft 470 kts 300°
2026-05-06 13:38 21.87112 87.69179 31797 ft 468 kts 300°
2026-05-06 13:39 21.90786 87.63339 31793 ft 470 kts 300°
2026-05-06 13:39 21.94433 87.57536 31797 ft 469 kts 300°
2026-05-06 13:40 21.98106 87.51686 31794 ft 470 kts 300°
2026-05-06 13:40 22.01741 87.45890 31790 ft 468 kts 300°
2026-05-06 13:41 22.05413 87.40028 31793 ft 470 kts 300°
2026-05-06 13:41 22.09053 87.34212 31790 ft 468 kts 299°
2026-05-06 13:42 22.12696 87.28383 31795 ft 468 kts 299°
2026-05-06 13:42 22.16331 87.22562 31794 ft 467 kts 299°
2026-05-06 13:43 22.19973 87.16723 31792 ft 467 kts 299°
2026-05-06 13:43 22.23606 87.10892 31792 ft 467 kts 299°
2026-05-06 13:44 22.27229 87.05072 31798 ft 465 kts 299°
2026-05-06 13:44 22.30846 86.99253 31801 ft 466 kts 299°
2026-05-06 13:45 22.34471 86.93415 31797 ft 467 kts 299°
2026-05-06 13:45 22.39915 86.84636 31792 ft 470 kts 299°
2026-05-06 13:46 22.43516 86.78823 31795 ft 466 kts 299°
2026-05-06 13:46 22.47148 86.72952 31797 ft 467 kts 299°
2026-05-06 13:47 22.50768 86.67094 31798 ft 468 kts 299°
2026-05-06 13:47 22.54374 86.61253 31798 ft 466 kts 299°
2026-05-06 13:48 22.57990 86.55388 31798 ft 467 kts 299°
2026-05-06 13:48 22.61601 86.49526 31801 ft 466 kts 299°
2026-05-06 13:49 22.65225 86.43634 31807 ft 467 kts 298°
2026-05-06 13:49 22.68811 86.37798 31810 ft 467 kts 298°
2026-05-06 13:50 22.72427 86.31908 31818 ft 468 kts 298°
2026-05-06 13:50 22.76050 86.25999 31807 ft 467 kts 298°
2026-05-06 13:51 22.79648 86.20124 31800 ft 467 kts 298°
2026-05-06 13:51 22.82509 86.13867 31797 ft 461 kts 287°
2026-05-06 13:52 22.84772 86.07380 31798 ft 459 kts 287°
2026-05-06 13:52 22.87012 86.00912 31789 ft 460 kts 287°
2026-05-06 13:53 22.89269 85.94377 31804 ft 459 kts 287°
2026-05-06 13:53 22.91494 85.87923 31807 ft 457 kts 287°
2026-05-06 13:54 22.93712 85.81473 31813 ft 457 kts 287°
2026-05-06 13:54 22.95938 85.74994 31817 ft 457 kts 287°
2026-05-06 13:55 22.98145 85.68555 31820 ft 457 kts 287°
2026-05-06 13:55 23.00371 85.62051 31829 ft 457 kts 287°
2026-05-06 13:56 23.02572 85.55614 31837 ft 457 kts 287°
2026-05-06 13:56 23.04790 85.49116 31849 ft 457 kts 287°
2026-05-06 13:57 23.06997 85.42638 31861 ft 457 kts 287°
2026-05-06 13:57 23.09187 85.36203 31878 ft 454 kts 287°
2026-05-06 13:58 23.11383 85.29739 31898 ft 455 kts 286°
2026-05-06 13:58 23.13560 85.23319 31900 ft 454 kts 286°
2026-05-06 13:59 23.15742 85.16879 31899 ft 452 kts 286°
2026-05-06 13:59 23.17915 85.10451 31906 ft 453 kts 286°
2026-05-06 14:00 23.20083 85.04031 31910 ft 453 kts 286°
2026-05-06 14:00 23.22245 84.97617 31912 ft 451 kts 286°
2026-05-06 14:01 23.24402 84.91209 31911 ft 453 kts 286°
2026-05-06 14:01 23.26559 84.84793 31911 ft 451 kts 286°
2026-05-06 14:02 23.28707 84.78394 31911 ft 452 kts 286°
2026-05-06 14:02 23.30870 84.71938 31910 ft 452 kts 286°
2026-05-06 14:03 23.33025 84.65498 31911 ft 450 kts 286°
2026-05-06 14:03 23.35171 84.59072 31914 ft 450 kts 286°
2026-05-06 14:04 23.37317 84.52638 31918 ft 449 kts 286°
2026-05-06 14:04 23.39464 84.46190 31923 ft 451 kts 286°
2026-05-06 14:05 23.41587 84.39807 31938 ft 448 kts 286°
2026-05-06 14:05 23.43711 84.33408 31965 ft 448 kts 286°
2026-05-06 14:06 23.45831 84.27013 31986 ft 448 kts 286°
2026-05-06 14:06 23.47953 84.20602 32000 ft 448 kts 286°
2026-05-06 14:07 23.50072 84.14189 32003 ft 446 kts 286°
2026-05-06 14:07 23.52195 84.07752 31998 ft 447 kts 286°
2026-05-06 14:08 23.54287 84.01404 31986 ft 445 kts 285°
2026-05-06 14:08 23.56399 83.94980 31966 ft 449 kts 286°
2026-05-06 14:09 23.58495 83.88599 31934 ft 446 kts 286°
2026-05-06 14:09 23.60595 83.82195 31898 ft 447 kts 285°
2026-05-06 14:10 23.62694 83.75782 31873 ft 446 kts 286°
2026-05-06 14:10 23.64778 83.69405 31868 ft 448 kts 285°
2026-05-06 14:11 23.66881 83.62962 31867 ft 445 kts 286°
2026-05-06 14:11 23.68965 83.56567 31865 ft 447 kts 286°
2026-05-06 14:12 23.71043 83.50177 31865 ft 447 kts 285°
2026-05-06 14:12 23.73124 83.43770 31862 ft 448 kts 286°
2026-05-06 14:13 23.75212 83.37356 31861 ft 447 kts 286°
2026-05-06 14:13 23.77305 83.30922 31868 ft 450 kts 285°
2026-05-06 14:14 23.79399 83.24472 31862 ft 447 kts 285°
2026-05-06 14:14 23.81493 83.18015 31851 ft 452 kts 285°
2026-05-06 14:15 23.83590 83.11538 31847 ft 447 kts 285°
2026-05-06 14:15 23.85670 83.05100 31848 ft 453 kts 285°
2026-05-06 14:16 23.87768 82.98597 31851 ft 449 kts 286°
2026-05-06 14:16 23.89835 82.92181 31846 ft 449 kts 285°
2026-05-06 14:17 23.91919 82.85699 31840 ft 450 kts 285°
2026-05-06 14:17 23.93999 82.79221 31833 ft 449 kts 286°
2026-05-06 14:18 23.96057 82.72803 31821 ft 449 kts 286°
2026-05-06 14:18 23.98127 82.66334 31818 ft 449 kts 286°
2026-05-06 14:19 24.00196 82.59856 31817 ft 449 kts 285°
2026-05-06 14:19 24.02256 82.53400 31818 ft 448 kts 286°
2026-05-06 14:20 24.04310 82.46951 31818 ft 449 kts 286°
2026-05-06 14:20 24.06373 82.40462 31827 ft 449 kts 285°
2026-05-06 14:21 24.08408 82.34051 31834 ft 447 kts 285°
2026-05-06 14:21 24.10471 82.27539 31846 ft 448 kts 285°
2026-05-06 14:22 24.12507 82.21105 31838 ft 448 kts 285°
2026-05-06 14:22 24.14539 82.14671 31840 ft 447 kts 285°
2026-05-06 14:23 24.16577 82.08207 31842 ft 449 kts 285°
2026-05-06 14:23 24.18615 82.01734 31845 ft 448 kts 285°
2026-05-06 14:24 24.20596 81.95290 31848 ft 449 kts 285°
2026-05-06 14:24 24.22546 81.88779 31847 ft 447 kts 285°
2026-05-06 14:25 24.24482 81.82313 31845 ft 448 kts 285°
2026-05-06 14:25 24.26414 81.75859 31844 ft 448 kts 285°
2026-05-06 14:26 24.28358 81.69354 31842 ft 447 kts 285°
2026-05-06 14:26 24.30286 81.62894 31838 ft 449 kts 285°
2026-05-06 14:27 24.32216 81.56419 31833 ft 447 kts 285°
2026-05-06 14:27 24.34148 81.49921 31832 ft 450 kts 285°
2026-05-06 14:28 24.36079 81.43421 31837 ft 447 kts 285°
2026-05-06 14:28 24.38001 81.36938 31826 ft 449 kts 285°
2026-05-06 14:29 24.39933 81.30409 31842 ft 449 kts 285°
2026-05-06 14:29 24.41843 81.23946 31845 ft 449 kts 285°
2026-05-06 14:30 24.43767 81.17423 31849 ft 448 kts 285°
2026-05-06 14:30 24.45685 81.10909 31836 ft 447 kts 285°
2026-05-06 14:31 24.47583 81.04449 31838 ft 448 kts 285°
2026-05-06 14:31 24.49496 80.97929 31839 ft 448 kts 285°
2026-05-06 14:32 24.51389 80.91466 31838 ft 447 kts 285°
2026-05-06 14:32 24.53301 80.84924 31833 ft 448 kts 285°
2026-05-06 14:33 24.55193 80.78442 31850 ft 448 kts 285°
2026-05-06 14:33 24.57092 80.71923 31854 ft 449 kts 285°
2026-05-06 14:34 24.58975 80.65448 31850 ft 447 kts 285°
2026-05-06 14:34 24.60872 80.58914 31846 ft 448 kts 285°
2026-05-06 14:35 24.62746 80.52444 31847 ft 448 kts 285°
2026-05-06 14:35 24.64633 80.45921 31847 ft 448 kts 285°
2026-05-06 14:36 24.66510 80.39420 31845 ft 449 kts 285°
2026-05-06 14:36 24.68397 80.32873 31851 ft 448 kts 285°
2026-05-06 14:37 24.70270 80.26363 31857 ft 448 kts 285°
2026-05-06 14:37 24.72149 80.19820 31848 ft 448 kts 285°
2026-05-06 14:38 24.74026 80.13271 31835 ft 448 kts 285°
2026-05-06 14:38 24.75890 80.06757 31815 ft 450 kts 285°
2026-05-06 14:39 24.77763 80.00198 31805 ft 447 kts 285°
2026-05-06 14:39 24.79618 79.93694 31801 ft 448 kts 285°
2026-05-06 14:40 24.82233 79.87412 31801 ft 451 kts 296°
2026-05-06 14:40 24.85290 79.81415 31802 ft 451 kts 296°
2026-05-06 14:41 24.88338 79.75417 31801 ft 450 kts 296°
2026-05-06 14:41 24.91398 79.69379 31802 ft 451 kts 296°
2026-05-06 14:42 24.94436 79.63370 31813 ft 450 kts 296°
2026-05-06 14:42 24.97481 79.57336 31814 ft 450 kts 296°
2026-05-06 14:43 25.00513 79.51317 31815 ft 450 kts 296°
2026-05-06 14:43 25.03554 79.45274 31811 ft 450 kts 296°
2026-05-06 14:44 25.06583 79.39245 31810 ft 451 kts 296°
2026-05-06 14:45 25.11116 79.30211 31817 ft 450 kts 296°
2026-05-06 14:45 25.14144 79.24163 31815 ft 450 kts 296°
2026-05-06 14:46 25.17173 79.18108 31815 ft 449 kts 296°
2026-05-06 14:46 25.20208 79.12031 31807 ft 450 kts 296°
2026-05-06 14:47 25.23221 79.05991 31805 ft 449 kts 296°
2026-05-06 14:47 25.26253 78.99905 31808 ft 450 kts 296°
2026-05-06 14:48 25.29238 78.93905 31814 ft 449 kts 296°
2026-05-06 14:48 25.32282 78.87779 31809 ft 449 kts 296°
2026-05-06 14:49 25.35234 78.81832 31808 ft 449 kts 296°
2026-05-06 14:49 25.38238 78.75769 31803 ft 448 kts 296°
2026-05-06 14:50 25.41235 78.69714 31800 ft 449 kts 296°
2026-05-06 14:50 25.44267 78.63580 31798 ft 448 kts 296°
2026-05-06 14:51 25.47227 78.57584 31798 ft 449 kts 296°
2026-05-06 14:51 25.50201 78.51550 31807 ft 448 kts 296°
2026-05-06 14:52 25.53179 78.45502 31812 ft 448 kts 296°
2026-05-06 14:52 25.56179 78.39398 31815 ft 448 kts 297°
2026-05-06 14:53 25.59156 78.33335 31825 ft 447 kts 296°
2026-05-06 14:53 25.62136 78.27282 31829 ft 448 kts 297°
2026-05-06 14:54 25.65167 78.21200 31828 ft 448 kts 297°
2026-05-06 14:54 25.68165 78.15174 31825 ft 447 kts 297°
2026-05-06 14:55 25.71180 78.09104 31824 ft 446 kts 297°
2026-05-06 14:55 25.74169 78.03076 31824 ft 446 kts 297°
2026-05-06 14:56 25.77153 77.97049 31827 ft 445 kts 297°
2026-05-06 14:56 25.80154 77.90981 31826 ft 445 kts 297°
2026-05-06 14:57 25.83128 77.84959 31825 ft 447 kts 297°
2026-05-06 14:57 25.86124 77.78883 31827 ft 447 kts 297°
2026-05-06 14:58 25.89098 77.72843 31830 ft 447 kts 297°
2026-05-06 14:58 25.92097 77.66745 31833 ft 447 kts 297°
2026-05-06 14:59 25.95078 77.60676 31829 ft 448 kts 297°
2026-05-06 14:59 25.98061 77.54594 31815 ft 447 kts 297°
2026-05-06 15:00 26.01030 77.48532 31808 ft 449 kts 297°
2026-05-06 15:00 26.04021 77.42416 31805 ft 448 kts 297°
2026-05-06 15:01 26.07013 77.36291 31805 ft 449 kts 297°
2026-05-06 15:01 26.09983 77.30202 31830 ft 446 kts 297°
2026-05-06 15:02 26.12954 77.24103 31832 ft 446 kts 297°
2026-05-06 15:02 26.15913 77.18006 31827 ft 447 kts 297°
2026-05-06 15:03 26.18853 77.11920 31824 ft 447 kts 297°
2026-05-06 15:03 26.21803 77.05808 31833 ft 447 kts 297°
2026-05-06 15:04 26.24759 76.99673 31833 ft 447 kts 297°
2026-05-06 15:04 26.27687 76.93589 31839 ft 448 kts 297°
2026-05-06 15:05 26.30635 76.87454 31864 ft 450 kts 297°
2026-05-06 15:05 26.32116 76.84369 32076 ft 452 kts 297°
2026-05-06 15:05 26.33603 76.81270 32613 ft 447 kts 296°
2026-05-06 15:05 26.35062 76.78228 33274 ft 440 kts 296°
2026-05-06 15:06 26.36508 76.75211 33763 ft 438 kts 296°
2026-05-06 15:06 26.39384 76.69201 33808 ft 439 kts 296°
2026-05-06 15:07 26.42257 76.63188 33811 ft 438 kts 297°
2026-05-06 15:07 26.45127 76.57176 33810 ft 437 kts 297°
2026-05-06 15:08 26.48061 76.51190 33811 ft 439 kts 298°
2026-05-06 15:08 26.51135 76.45264 33802 ft 439 kts 298°
2026-05-06 15:09 26.54176 76.39376 33800 ft 438 kts 298°
2026-05-06 15:09 26.57216 76.33470 33818 ft 439 kts 298°
2026-05-06 15:10 26.60272 76.27519 33823 ft 439 kts 298°
2026-05-06 15:10 26.63295 76.21621 33825 ft 439 kts 298°
2026-05-06 15:11 26.66331 76.15688 33825 ft 439 kts 298°
2026-05-06 15:11 26.69368 76.09745 33833 ft 438 kts 298°
2026-05-06 15:12 26.72390 76.03824 33834 ft 439 kts 298°
2026-05-06 15:12 26.75406 75.97906 33825 ft 438 kts 298°
2026-05-06 15:13 26.78428 75.91966 33814 ft 438 kts 298°
2026-05-06 15:13 26.81452 75.86015 33821 ft 437 kts 298°
2026-05-06 15:14 26.84365 75.80059 33816 ft 437 kts 296°
2026-05-06 15:14 26.87157 75.73992 33823 ft 436 kts 297°
2026-05-06 15:15 26.89931 75.67976 33819 ft 436 kts 297°
2026-05-06 15:15 26.92732 75.61906 33836 ft 436 kts 297°
2026-05-06 15:16 26.95548 75.55806 33834 ft 438 kts 297°
2026-05-06 15:16 26.98352 75.49725 33837 ft 437 kts 297°
2026-05-06 15:17 27.01135 75.43681 33842 ft 438 kts 297°
2026-05-06 15:17 27.03937 75.37589 33832 ft 437 kts 297°
2026-05-06 15:18 27.06711 75.31551 33855 ft 436 kts 297°
2026-05-06 15:18 27.09492 75.25485 33852 ft 436 kts 297°
2026-05-06 15:19 27.12235 75.19493 33845 ft 435 kts 297°
2026-05-06 15:19 27.14998 75.13451 33849 ft 435 kts 297°
2026-05-06 15:20 27.17769 75.07381 33850 ft 435 kts 297°
2026-05-06 15:20 27.20526 75.01334 33845 ft 434 kts 297°
2026-05-06 15:21 27.23280 74.95284 33840 ft 435 kts 297°
2026-05-06 15:21 27.26052 74.89186 33837 ft 438 kts 297°
2026-05-06 15:22 27.28829 74.83068 33832 ft 437 kts 297°
2026-05-06 15:22 27.31609 74.76935 33826 ft 438 kts 297°
2026-05-06 15:23 27.34377 74.70818 33817 ft 437 kts 297°
2026-05-06 15:23 27.37134 74.64719 33813 ft 438 kts 297°
2026-05-06 15:24 27.39895 74.58600 33815 ft 438 kts 297°
2026-05-06 15:24 27.42663 74.52457 33805 ft 438 kts 297°
2026-05-06 15:25 27.45414 74.46343 33797 ft 438 kts 297°
2026-05-06 15:25 27.48165 74.40218 33801 ft 438 kts 297°
2026-05-06 15:26 27.50905 74.34112 33802 ft 439 kts 297°
2026-05-06 15:26 27.53673 74.27934 33816 ft 438 kts 297°
2026-05-06 15:27 27.56407 74.21821 33805 ft 439 kts 297°
2026-05-06 15:27 27.59148 74.15683 33810 ft 438 kts 297°
2026-05-06 15:28 27.61881 74.09555 33813 ft 439 kts 297°
2026-05-06 15:28 27.64629 74.03384 33806 ft 439 kts 297°
2026-05-06 15:29 27.67361 73.97240 33811 ft 440 kts 297°
2026-05-06 15:29 27.70096 73.91080 33804 ft 439 kts 297°
2026-05-06 15:30 27.72820 73.84934 33801 ft 439 kts 297°
2026-05-06 15:30 27.75674 73.78805 33799 ft 438 kts 299°
2026-05-06 15:31 27.78588 73.72754 33788 ft 439 kts 299°
2026-05-06 15:31 27.81497 73.66682 33787 ft 439 kts 299°
2026-05-06 15:32 27.85849 73.57566 33773 ft 439 kts 299°
2026-05-06 15:32 27.88743 73.51489 33764 ft 439 kts 299°
2026-05-06 15:33 27.91625 73.45425 33763 ft 440 kts 299°
2026-05-06 15:33 27.94530 73.39303 33760 ft 439 kts 299°
2026-05-06 15:34 27.97414 73.33216 33760 ft 439 kts 298°
2026-05-06 15:34 28.00300 73.27116 33767 ft 440 kts 299°
2026-05-06 15:35 28.03178 73.21023 33752 ft 439 kts 299°
2026-05-06 15:35 28.06047 73.14941 33748 ft 438 kts 299°
2026-05-06 15:36 28.08916 73.08848 33756 ft 438 kts 299°
2026-05-06 15:36 28.11789 73.02741 33778 ft 438 kts 299°
2026-05-06 15:37 28.14656 72.96634 33759 ft 439 kts 299°
2026-05-06 15:37 28.17532 72.90500 33766 ft 439 kts 299°
2026-05-06 15:38 28.20375 72.84427 33746 ft 438 kts 299°
2026-05-06 15:38 28.23241 72.78297 33743 ft 438 kts 299°
2026-05-06 15:39 28.26086 72.72204 33737 ft 439 kts 299°
2026-05-06 15:39 28.28941 72.66077 33721 ft 439 kts 299°
2026-05-06 15:40 28.31788 72.59959 33719 ft 438 kts 299°
2026-05-06 15:40 28.34642 72.53820 33711 ft 438 kts 299°
2026-05-06 15:41 28.37478 72.47707 33728 ft 439 kts 299°
2026-05-06 15:41 28.40317 72.41581 33713 ft 438 kts 299°
2026-05-06 15:42 28.43158 72.35439 33717 ft 438 kts 299°
2026-05-06 15:42 28.45985 72.29321 33728 ft 438 kts 298°
2026-05-06 15:43 28.49368 72.23611 33723 ft 437 kts 313°
2026-05-06 15:43 28.53898 72.18931 33730 ft 436 kts 317°
2026-05-06 15:44 28.58451 72.14379 33718 ft 439 kts 317°
2026-05-06 15:44 28.63047 72.09770 33701 ft 438 kts 317°
2026-05-06 15:45 28.67637 72.05156 33716 ft 438 kts 317°
2026-05-06 15:45 28.72202 72.00557 33696 ft 436 kts 317°
2026-05-06 15:46 28.76785 71.95935 33697 ft 437 kts 317°
2026-05-06 15:46 28.81342 71.91331 33690 ft 436 kts 317°
2026-05-06 15:47 28.85897 71.86724 33693 ft 439 kts 317°
2026-05-06 15:47 28.90459 71.82105 33691 ft 437 kts 317°
2026-05-06 15:48 28.95018 71.77482 33688 ft 435 kts 317°
2026-05-06 15:48 28.99545 71.72886 33700 ft 435 kts 317°
2026-05-06 15:49 29.04104 71.68253 33696 ft 436 kts 317°
2026-05-06 15:49 29.08636 71.63640 33698 ft 436 kts 317°
2026-05-06 15:50 29.13184 71.59006 33699 ft 436 kts 317°
2026-05-06 15:50 29.17734 71.54363 33702 ft 436 kts 317°
2026-05-06 15:51 29.22270 71.49731 33693 ft 436 kts 317°
2026-05-06 15:51 29.26812 71.45085 33696 ft 436 kts 317°
2026-05-06 15:52 29.31374 71.40424 33691 ft 437 kts 317°
2026-05-06 15:52 29.35947 71.35792 33688 ft 437 kts 317°
2026-05-06 15:53 29.40512 71.31162 33699 ft 437 kts 317°
2026-05-06 15:53 29.45064 71.26537 33704 ft 438 kts 317°
2026-05-06 15:54 29.49605 71.21916 33691 ft 437 kts 317°
2026-05-06 15:54 29.54176 71.17259 33690 ft 438 kts 317°
2026-05-06 15:55 29.58758 71.12584 33690 ft 438 kts 317°
2026-05-06 15:55 29.63292 71.07954 33692 ft 437 kts 317°
2026-05-06 15:56 29.67894 71.03248 33700 ft 437 kts 317°
2026-05-06 15:56 29.72612 70.98760 33712 ft 439 kts 320°
2026-05-06 15:57 29.77371 70.94338 33704 ft 440 kts 319°
2026-05-06 15:57 29.82149 70.89876 33710 ft 441 kts 319°
2026-05-06 15:58 29.86924 70.85404 33718 ft 440 kts 320°
2026-05-06 15:58 29.91676 70.80943 33717 ft 441 kts 319°
2026-05-06 15:59 29.96475 70.76430 33718 ft 440 kts 319°
2026-05-06 15:59 30.01238 70.71945 33723 ft 440 kts 319°
2026-05-06 16:00 30.06020 70.67436 33748 ft 440 kts 320°
2026-05-06 16:00 30.10769 70.62951 33749 ft 441 kts 319°
2026-05-06 16:01 30.15565 70.58417 33769 ft 439 kts 320°
2026-05-06 16:01 30.20316 70.53918 33797 ft 440 kts 320°
2026-05-06 16:02 30.25072 70.49461 33794 ft 439 kts 320°
2026-05-06 16:02 30.29881 70.45034 33834 ft 440 kts 320°
2026-05-06 16:03 30.34670 70.40614 33869 ft 438 kts 320°
2026-05-06 16:03 30.39451 70.36193 33887 ft 437 kts 320°
2026-05-06 16:04 30.44247 70.31750 33922 ft 439 kts 320°
2026-05-06 16:04 30.49029 70.27316 33945 ft 437 kts 320°
2026-05-06 16:05 30.53797 70.22887 33962 ft 436 kts 320°
2026-05-06 16:05 30.58578 70.18439 33997 ft 437 kts 320°
2026-05-06 16:06 30.63342 70.14003 34037 ft 437 kts 320°
2026-05-06 16:06 30.68106 70.09560 34083 ft 437 kts 320°
2026-05-06 16:07 30.72852 70.05128 34128 ft 437 kts 320°
2026-05-06 16:07 30.77621 70.00669 34185 ft 435 kts 320°
2026-05-06 16:08 30.82359 69.96233 34190 ft 435 kts 320°
2026-05-06 16:08 30.87096 69.91792 34185 ft 434 kts 320°
2026-05-06 16:09 30.91830 69.87348 34184 ft 437 kts 320°
2026-05-06 16:09 30.96599 69.82866 34185 ft 437 kts 320°
2026-05-06 16:10 31.01316 69.78427 34191 ft 433 kts 320°
2026-05-06 16:10 31.06041 69.73973 34186 ft 435 kts 320°
2026-05-06 16:11 31.10786 69.69496 34185 ft 437 kts 320°
2026-05-06 16:11 31.15519 69.65023 34184 ft 436 kts 320°
2026-05-06 16:12 31.20265 69.60534 34203 ft 436 kts 320°
2026-05-06 16:12 31.24990 69.56056 34201 ft 434 kts 320°
2026-05-06 16:13 31.29707 69.51582 34196 ft 435 kts 320°
2026-05-06 16:13 31.34424 69.47080 34174 ft 435 kts 318°
2026-05-06 16:14 31.38453 69.41764 34165 ft 435 kts 309°
2026-05-06 16:14 31.42223 69.36217 34167 ft 437 kts 309°
2026-05-06 16:15 31.46030 69.30600 34181 ft 435 kts 309°
2026-05-06 16:15 31.49803 69.25024 34191 ft 435 kts 309°
2026-05-06 16:16 31.53569 69.19450 34228 ft 437 kts 309°
2026-05-06 16:16 31.57353 69.13840 34232 ft 437 kts 309°
2026-05-06 16:17 31.61147 69.08209 34243 ft 437 kts 309°
2026-05-06 16:17 31.64955 69.02546 34257 ft 437 kts 309°
2026-05-06 16:18 31.68773 68.96987 34254 ft 437 kts 311°
2026-05-06 16:18 31.72633 68.91625 34260 ft 438 kts 311°
2026-05-06 16:19 31.75875 68.87105 34257 ft 438 kts 311°
2026-05-06 16:19 31.79810 68.81602 34275 ft 438 kts 310°
2026-05-06 16:20 31.83746 68.76086 34276 ft 438 kts 310°
2026-05-06 16:20 31.87646 68.70608 34283 ft 439 kts 310°
2026-05-06 16:21 31.91578 68.65076 34279 ft 437 kts 310°
2026-05-06 16:21 31.95499 68.59551 34298 ft 438 kts 310°
2026-05-06 16:22 31.99408 68.54033 34305 ft 436 kts 310°
2026-05-06 16:22 32.03302 68.48530 34327 ft 437 kts 310°
2026-05-06 16:23 32.07187 68.43030 34333 ft 436 kts 310°
2026-05-06 16:23 32.11085 68.37505 34364 ft 438 kts 310°
2026-05-06 16:24 32.15004 68.31941 34374 ft 435 kts 310°
2026-05-06 16:24 32.18904 68.26395 34385 ft 437 kts 310°
2026-05-06 16:25 32.22770 68.20891 34372 ft 439 kts 310°
2026-05-06 16:25 32.26674 68.15324 34382 ft 438 kts 310°
2026-05-06 16:26 32.30569 68.09761 34357 ft 439 kts 310°
2026-05-06 16:26 32.34471 68.04179 34341 ft 439 kts 310°
2026-05-06 16:27 32.38350 67.98624 34343 ft 441 kts 310°
2026-05-06 16:27 32.42283 67.92982 34331 ft 442 kts 310°
2026-05-06 16:28 32.46201 67.87353 34340 ft 440 kts 310°
2026-05-06 16:28 32.50107 67.81733 34363 ft 441 kts 310°
2026-05-06 16:29 32.54144 67.76260 34369 ft 440 kts 312°
2026-05-06 16:29 32.58088 67.71021 34363 ft 440 kts 311°
2026-05-06 16:30 32.61521 67.66441 34370 ft 439 kts 311°
2026-05-06 16:30 32.66278 67.60076 34393 ft 441 kts 311°
2026-05-06 16:31 32.70335 67.54633 34388 ft 439 kts 311°
2026-05-06 16:31 32.74405 67.49163 34397 ft 440 kts 311°
2026-05-06 16:32 32.78323 67.43877 34446 ft 442 kts 310°
2026-05-06 16:32 32.82263 67.38249 34454 ft 439 kts 310°
2026-05-06 16:33 32.86163 67.32657 34482 ft 441 kts 309°
2026-05-06 16:34 32.92040 67.24232 34520 ft 439 kts 309°
2026-05-06 16:34 32.95919 67.18665 34530 ft 439 kts 309°
2026-05-06 16:35 32.99836 67.13037 34577 ft 437 kts 309°
2026-05-06 16:35 33.03728 67.07439 34565 ft 439 kts 309°
2026-05-06 16:36 33.07647 67.01791 34598 ft 440 kts 309°
2026-05-06 16:36 33.11561 66.96144 34606 ft 438 kts 309°
2026-05-06 16:37 33.15473 66.90485 34598 ft 440 kts 309°
2026-05-06 16:37 33.19369 66.84850 34582 ft 439 kts 309°
2026-05-06 16:38 33.23263 66.79207 34590 ft 438 kts 309°
2026-05-06 16:38 33.27168 66.73538 34569 ft 438 kts 309°
2026-05-06 16:39 33.31056 66.67886 34586 ft 439 kts 309°
2026-05-06 16:39 33.34961 66.62199 34577 ft 440 kts 309°
2026-05-06 16:40 33.38871 66.56497 34561 ft 439 kts 309°
2026-05-06 16:40 33.42756 66.50821 34523 ft 439 kts 309°
2026-05-06 16:41 33.46644 66.45132 34493 ft 441 kts 309°
2026-05-06 16:41 33.50551 66.39382 34471 ft 439 kts 309°
2026-05-06 16:42 33.54430 66.33662 34475 ft 441 kts 309°
2026-05-06 16:42 33.58325 66.27910 34467 ft 442 kts 309°
2026-05-06 16:43 33.62215 66.22156 34471 ft 441 kts 309°
2026-05-06 16:43 33.66085 66.16422 34496 ft 441 kts 309°
2026-05-06 16:44 33.69987 66.10632 34526 ft 442 kts 309°
2026-05-06 16:44 33.73851 66.04891 34535 ft 441 kts 308°
2026-05-06 16:45 33.77753 65.99084 34558 ft 442 kts 309°
2026-05-06 16:45 33.81623 65.93314 34554 ft 442 kts 309°
2026-05-06 16:46 33.85484 65.87549 34545 ft 440 kts 309°
2026-05-06 16:46 33.89341 65.81780 34558 ft 441 kts 309°
2026-05-06 16:47 33.93206 65.75990 34542 ft 442 kts 308°
2026-05-06 16:47 33.97076 65.70184 34561 ft 443 kts 308°
2026-05-06 16:48 34.00952 65.64358 34550 ft 441 kts 308°
2026-05-06 16:48 34.04805 65.58558 34561 ft 441 kts 308°
2026-05-06 16:49 34.08635 65.52787 34557 ft 442 kts 309°
2026-05-06 16:49 34.12522 65.46935 34575 ft 443 kts 308°
2026-05-06 16:50 34.16386 65.41106 34582 ft 441 kts 308°
2026-05-06 16:50 34.20242 65.35281 34577 ft 442 kts 308°
2026-05-06 16:51 34.24081 65.29472 34597 ft 441 kts 308°
2026-05-06 16:51 34.27931 65.23636 34600 ft 440 kts 308°
2026-05-06 16:52 34.31741 65.17852 34578 ft 440 kts 308°
2026-05-06 16:52 34.35591 65.11997 34583 ft 441 kts 308°
2026-05-06 16:53 34.39422 65.06161 34571 ft 441 kts 308°
2026-05-06 16:53 34.43283 65.00270 34550 ft 442 kts 308°
2026-05-06 16:54 34.47134 64.94385 34553 ft 441 kts 308°
2026-05-06 16:54 34.50954 64.88535 34545 ft 441 kts 308°
2026-05-06 16:55 34.54766 64.82676 34553 ft 441 kts 308°
2026-05-06 16:55 34.58606 64.76763 34554 ft 442 kts 308°
2026-05-06 16:56 34.62409 64.70898 34549 ft 441 kts 308°
2026-05-06 16:56 34.66215 64.65017 34529 ft 442 kts 308°
2026-05-06 16:57 34.70025 64.59122 34520 ft 443 kts 308°
2026-05-06 16:57 34.73848 64.53198 34492 ft 441 kts 308°
2026-05-06 16:58 34.77682 64.47245 34478 ft 444 kts 307°
2026-05-06 16:58 34.81517 64.41282 34466 ft 443 kts 308°
2026-05-06 16:59 34.85316 64.35364 34458 ft 443 kts 308°
2026-05-06 16:59 34.89143 64.29391 34432 ft 443 kts 307°
2026-05-06 17:00 34.92940 64.23457 34407 ft 444 kts 307°
2026-05-06 17:00 34.96773 64.17455 34349 ft 444 kts 307°
2026-05-06 17:01 35.00592 64.11466 34303 ft 446 kts 307°
2026-05-06 17:01 35.04417 64.05456 34282 ft 443 kts 307°
2026-05-06 17:02 35.08218 63.99476 34267 ft 445 kts 307°
2026-05-06 17:02 35.12028 63.93469 34262 ft 445 kts 307°
2026-05-06 17:03 35.15828 63.87470 34239 ft 445 kts 307°
2026-05-06 17:03 35.19626 63.81462 34194 ft 446 kts 307°
2026-05-06 17:04 35.23451 63.75400 34142 ft 447 kts 307°
2026-05-06 17:04 35.27256 63.69361 34092 ft 446 kts 307°
2026-05-06 17:05 35.31075 63.63291 34092 ft 446 kts 307°
2026-05-06 17:05 35.34877 63.57276 34098 ft 447 kts 307°
2026-05-06 17:06 35.38698 63.51219 34089 ft 446 kts 307°
2026-05-06 17:06 35.42507 63.45171 34069 ft 448 kts 307°
2026-05-06 17:07 35.46325 63.39097 34062 ft 446 kts 307°
2026-05-06 17:07 35.50142 63.33012 34042 ft 448 kts 307°
2026-05-06 17:08 35.53953 63.26928 34021 ft 447 kts 306°
2026-05-06 17:08 35.57765 63.20830 34006 ft 448 kts 307°
2026-05-06 17:09 35.61547 63.14706 33977 ft 449 kts 306°
2026-05-06 17:09 35.65323 63.08544 33946 ft 450 kts 306°
2026-05-06 17:10 35.69084 63.02400 33933 ft 450 kts 306°
2026-05-06 17:10 35.72871 62.96204 33927 ft 449 kts 306°
2026-05-06 17:11 35.76645 62.90019 33915 ft 450 kts 306°
2026-05-06 17:11 35.80408 62.83843 33923 ft 450 kts 306°
2026-05-06 17:12 35.84178 62.77642 33909 ft 450 kts 306°
2026-05-06 17:12 35.87949 62.71429 33893 ft 450 kts 306°
2026-05-06 17:13 35.91732 62.65185 33888 ft 452 kts 306°
2026-05-06 17:13 35.95483 62.58984 33894 ft 450 kts 306°
2026-05-06 17:14 35.99262 62.52725 33877 ft 451 kts 306°
2026-05-06 17:14 36.03027 62.46479 33888 ft 451 kts 306°
2026-05-06 17:15 36.06794 62.40216 33884 ft 450 kts 306°
2026-05-06 17:15 36.10537 62.33982 33894 ft 451 kts 305°
2026-05-06 17:16 36.14280 62.27738 33899 ft 449 kts 304°
2026-05-06 17:16 36.17999 62.21521 33906 ft 451 kts 305°
2026-05-06 17:17 36.21749 62.15241 33900 ft 450 kts 304°
2026-05-06 17:17 36.25487 62.08971 33889 ft 450 kts 304°
2026-05-06 17:18 36.29223 62.02692 33885 ft 452 kts 304°
2026-05-06 17:18 36.32972 61.96380 33887 ft 451 kts 305°
2026-05-06 17:19 36.36713 61.90070 33886 ft 453 kts 304°
2026-05-06 17:19 36.40445 61.83763 33874 ft 449 kts 304°
2026-05-06 17:20 36.44143 61.77501 33877 ft 450 kts 304°
2026-05-06 17:20 36.47864 61.71190 33861 ft 450 kts 304°
2026-05-06 17:21 36.51575 61.64882 33852 ft 449 kts 304°
2026-05-06 17:21 36.55296 61.58548 33847 ft 449 kts 304°
2026-05-06 17:22 36.59017 61.52200 33828 ft 450 kts 304°
2026-05-06 17:22 36.62697 61.45913 33825 ft 448 kts 304°
2026-05-06 17:23 36.66357 61.39507 33823 ft 450 kts 303°
2026-05-06 17:23 36.69984 61.33123 33820 ft 449 kts 303°
2026-05-06 17:24 36.73620 61.26717 33819 ft 450 kts 303°
2026-05-06 17:24 36.77235 61.20339 33825 ft 449 kts 302°
2026-05-06 17:25 36.80852 61.13946 33822 ft 449 kts 302°
2026-05-06 17:25 36.84456 61.07565 33824 ft 448 kts 302°
2026-05-06 17:26 36.88064 61.01164 33823 ft 448 kts 302°
2026-05-06 17:26 36.91645 60.94800 33817 ft 450 kts 302°
2026-05-06 17:27 36.95263 60.88358 33807 ft 449 kts 302°
2026-05-06 17:27 36.98938 60.81910 33815 ft 449 kts 304°
2026-05-06 17:28 37.02797 60.75800 33802 ft 448 kts 305°
2026-05-06 17:28 37.06671 60.69647 33820 ft 449 kts 305°
2026-05-06 17:29 37.10542 60.63466 33828 ft 449 kts 305°
2026-05-06 17:29 37.14410 60.57265 33836 ft 448 kts 305°
2026-05-06 17:30 37.18265 60.51067 33822 ft 449 kts 305°
2026-05-06 17:30 37.22084 60.44913 33839 ft 448 kts 304°
2026-05-06 17:31 37.25921 60.38718 33831 ft 447 kts 304°
2026-05-06 17:31 37.29746 60.32529 33848 ft 448 kts 304°
2026-05-06 17:32 37.33569 60.26333 33850 ft 445 kts 304°
2026-05-06 17:32 37.37388 60.20129 33859 ft 448 kts 304°
2026-05-06 17:33 37.41189 60.13944 33853 ft 446 kts 304°
2026-05-06 17:33 37.45013 60.07710 33860 ft 447 kts 304°
2026-05-06 17:34 37.48836 60.01466 33864 ft 448 kts 303°
2026-05-06 17:34 37.52650 59.95225 33845 ft 447 kts 303°
2026-05-06 17:35 37.56475 59.88952 33862 ft 449 kts 303°
2026-05-06 17:35 37.60290 59.82686 33865 ft 449 kts 303°
2026-05-06 17:36 37.66008 59.73272 33856 ft 449 kts 303°
2026-05-06 17:36 37.69832 59.66960 33851 ft 449 kts 303°
2026-05-06 17:37 37.73618 59.60701 33829 ft 450 kts 303°
2026-05-06 17:37 37.77419 59.54404 33829 ft 450 kts 303°
2026-05-06 17:38 37.81142 59.48224 33832 ft 449 kts 303°
2026-05-06 17:38 37.84922 59.41937 33835 ft 449 kts 303°
2026-05-06 17:39 37.88745 59.35548 33818 ft 450 kts 301°
2026-05-06 17:39 37.92066 59.28875 33859 ft 445 kts 297°
2026-05-06 17:40 37.95295 59.22190 33815 ft 445 kts 297°
2026-05-06 17:40 37.98553 59.15431 33841 ft 447 kts 297°
2026-05-06 17:41 38.01808 59.08668 33831 ft 446 kts 297°
2026-05-06 17:41 38.05024 59.01970 33826 ft 446 kts 297°
2026-05-06 17:42 38.08257 58.95226 33829 ft 446 kts 297°
2026-05-06 17:42 38.11505 58.88435 33832 ft 444 kts 297°
2026-05-06 17:43 38.14715 58.81708 33847 ft 447 kts 296°
2026-05-06 17:43 38.17935 58.74948 33841 ft 446 kts 297°
2026-05-06 17:44 38.21153 58.68179 33845 ft 446 kts 297°
2026-05-06 17:44 38.24372 58.61392 33850 ft 446 kts 296°
2026-05-06 17:45 38.27605 58.54562 33849 ft 446 kts 296°
2026-05-06 17:45 38.30793 58.47812 33845 ft 447 kts 296°
2026-05-06 17:46 38.34010 58.40988 33865 ft 446 kts 296°
2026-05-06 17:46 38.37199 58.34209 33861 ft 446 kts 296°
2026-05-06 17:47 38.40297 58.27347 33871 ft 443 kts 291°
2026-05-06 17:47 38.42871 58.20161 33872 ft 441 kts 289°
2026-05-06 17:48 38.45394 58.13032 33870 ft 442 kts 289°
2026-05-06 17:48 38.47914 58.05895 33880 ft 440 kts 289°
2026-05-06 17:49 38.50436 57.98734 33873 ft 441 kts 289°
2026-05-06 17:49 38.52952 57.91576 33881 ft 441 kts 289°
2026-05-06 17:50 38.55469 57.84398 33859 ft 441 kts 289°
2026-05-06 17:50 38.57975 57.77230 33877 ft 442 kts 289°
2026-05-06 17:51 38.60491 57.70020 33875 ft 442 kts 289°
2026-05-06 17:51 38.63361 57.63010 33881 ft 448 kts 296°
2026-05-06 17:52 38.66631 57.56231 33865 ft 448 kts 296°
2026-05-06 17:52 38.69904 57.49428 33868 ft 450 kts 296°
2026-05-06 17:53 38.73181 57.42594 33867 ft 448 kts 296°
2026-05-06 17:53 38.76467 57.35725 33885 ft 449 kts 296°
2026-05-06 17:54 38.79735 57.28874 33879 ft 449 kts 295°
2026-05-06 17:54 38.82982 57.22054 33885 ft 449 kts 295°
2026-05-06 17:55 38.86263 57.15146 33871 ft 448 kts 295°
2026-05-06 17:55 38.89507 57.08301 33870 ft 449 kts 295°
2026-05-06 17:56 38.92749 57.01446 33866 ft 448 kts 295°
2026-05-06 17:56 38.95985 56.94587 33867 ft 449 kts 295°
2026-05-06 17:57 38.99230 56.87695 33869 ft 448 kts 295°
2026-05-06 17:57 39.02449 56.80844 33870 ft 449 kts 295°
2026-05-06 17:58 39.05689 56.73931 33871 ft 449 kts 295°
2026-05-06 17:58 39.08917 56.67032 33859 ft 450 kts 295°
2026-05-06 17:59 39.12152 56.60102 33866 ft 449 kts 295°
2026-05-06 17:59 39.15372 56.53189 33866 ft 448 kts 295°
2026-05-06 18:00 39.18579 56.46286 33873 ft 449 kts 295°
2026-05-06 18:00 39.21822 56.39291 33873 ft 451 kts 295°
2026-05-06 18:01 39.25027 56.32368 33896 ft 448 kts 294°
2026-05-06 18:01 39.28229 56.25432 33908 ft 449 kts 294°
2026-05-06 18:02 39.31453 56.18432 33906 ft 450 kts 294°
2026-05-06 18:02 39.34637 56.11506 33919 ft 448 kts 294°
2026-05-06 18:03 39.37831 56.04541 33917 ft 450 kts 294°
2026-05-06 18:03 39.41037 55.97537 33918 ft 449 kts 294°
2026-05-06 18:04 39.44224 55.90554 33919 ft 451 kts 293°
2026-05-06 18:04 39.47414 55.83553 33919 ft 449 kts 293°
2026-05-06 18:05 39.50610 55.76574 33920 ft 450 kts 294°
2026-05-06 18:05 39.53872 55.69569 33927 ft 449 kts 294°
2026-05-06 18:06 39.57108 55.62597 33929 ft 451 kts 294°
2026-05-06 18:06 39.60321 55.55658 33928 ft 448 kts 294°
2026-05-06 18:07 39.63559 55.48642 33923 ft 450 kts 294°
2026-05-06 18:07 39.66798 55.41611 33915 ft 449 kts 294°
2026-05-06 18:08 39.69682 55.34490 33913 ft 439 kts 283°
2026-05-06 18:08 39.71412 55.26951 33933 ft 436 kts 280°
2026-05-06 18:09 39.72242 55.23133 34103 ft 442 kts 279°
2026-05-06 18:09 39.73075 55.19310 34665 ft 438 kts 279°
2026-05-06 18:09 39.73896 55.15538 35407 ft 429 kts 279°
2026-05-06 18:09 39.74706 55.11796 35847 ft 428 kts 279°
2026-05-06 18:10 39.76329 55.04275 35935 ft 429 kts 279°
2026-05-06 18:10 39.77934 54.96816 35938 ft 427 kts 279°
2026-05-06 18:11 39.79527 54.89379 35941 ft 428 kts 279°
2026-05-06 18:11 39.81137 54.81844 35957 ft 428 kts 279°
2026-05-06 18:12 39.82722 54.74401 35956 ft 429 kts 279°
2026-05-06 18:12 39.84326 54.66902 35960 ft 429 kts 279°
2026-05-06 18:13 39.85930 54.59370 35964 ft 432 kts 279°
2026-05-06 18:13 39.87530 54.51839 35961 ft 431 kts 279°
2026-05-06 18:14 39.89127 54.44291 35964 ft 432 kts 279°
2026-05-06 18:14 39.90706 54.36747 35961 ft 431 kts 279°
2026-05-06 18:15 39.92276 54.29211 35969 ft 431 kts 279°
2026-05-06 18:15 39.93849 54.21639 35972 ft 432 kts 279°
2026-05-06 18:16 39.95418 54.14058 35970 ft 431 kts 279°
2026-05-06 18:16 39.96977 54.06497 35973 ft 431 kts 279°
2026-05-06 18:17 39.98535 53.98915 35972 ft 431 kts 279°
2026-05-06 18:17 40.00077 53.91385 35969 ft 430 kts 279°
2026-05-06 18:18 40.01632 53.83761 35964 ft 433 kts 279°
2026-05-06 18:18 40.03174 53.76176 35965 ft 432 kts 279°
2026-05-06 18:19 40.04715 53.68568 35973 ft 433 kts 279°
2026-05-06 18:19 40.06249 53.60964 35980 ft 434 kts 279°
2026-05-06 18:20 40.07779 53.53354 35978 ft 433 kts 279°
2026-05-06 18:20 40.09306 53.45730 35978 ft 433 kts 279°
2026-05-06 18:21 40.10822 53.38133 35976 ft 434 kts 279°
2026-05-06 18:21 40.12346 53.30469 35990 ft 433 kts 278°
2026-05-06 18:22 40.13851 53.22869 35994 ft 434 kts 278°
2026-05-06 18:22 40.15366 53.15188 35992 ft 435 kts 278°
2026-05-06 18:23 40.16876 53.07510 35998 ft 433 kts 278°
2026-05-06 18:23 40.18370 52.99880 35999 ft 434 kts 278°
2026-05-06 18:24 40.19863 52.92224 36000 ft 434 kts 278°
2026-05-06 18:24 40.21359 52.84531 36000 ft 433 kts 278°
2026-05-06 18:25 40.22848 52.76833 36006 ft 435 kts 278°
2026-05-06 18:25 40.24333 52.69134 35987 ft 435 kts 278°
2026-05-06 18:26 40.25812 52.61435 35998 ft 435 kts 278°
2026-05-06 18:26 40.27284 52.53754 36000 ft 436 kts 278°
2026-05-06 18:27 40.28767 52.45996 35993 ft 436 kts 278°
2026-05-06 18:27 40.30234 52.38299 36008 ft 436 kts 278°